When you browse on this site, cookies collect data to enhance your experience and personalize the content and advertising you see.
Visit our Privacy Policy to learn more. By continuing to use the site, you agree to this use of cookies and data.
  • In Österreich
  • Länderverzeichnis
  • Für 7 Tage
  • Wassertemperatur
  • Satellitenkarten
  • Wetterkarte
  • News
  • Widgets
  • user-avatar
    Anmelden

    Stündliche Wetter Chechelnik

    Heute, 21 Februar, Donnerstag

    Zeit Temperatur Niederschläge Wind Luftdruck Luftfeuchtigkeit
    00:00 +1°C° 0 mm 5 m/S 742 mmHg 82%
    01:00 +1°C° 0 mm 5 m/S 742 mmHg 81%
    02:00 +1°C° 0 mm 5 m/S 742 mmHg 81%
    03:00 +1°C° 0 mm 5 m/S 742 mmHg 80%
    04:00 +1°C° 0 mm 6 m/S 742 mmHg 80%
    05:00 -1°C° 0 mm 6 m/S 742 mmHg 80%
    06:00 -1°C° 0 mm 6 m/S 742 mmHg 80%
    07:00 -1°C° 0 mm 6 m/S 742 mmHg 81%
    08:00 -2°C° 0 mm 6 m/S 743 mmHg 81%
    09:00 -1°C° 0 mm 7 m/S 743 mmHg 73%
    10:00 0°C° 0 mm 7 m/S 743 mmHg 66%
    11:00 +1°C° 0 mm 8 m/S 743 mmHg 58%
    12:00 +1°C° 0 mm 8 m/S 743 mmHg 56%
    13:00 +2°C° 0 mm 8 m/S 743 mmHg 53%
    14:00 +2°C° 0 mm 8 m/S 743 mmHg 51%
    15:00 +3°C° 0 mm 7 m/S 743 mmHg 55%
    16:00 +3°C° 0 mm 7 m/S 743 mmHg 60%
    17:00 +2°C° 0 mm 6 m/S 743 mmHg 64%
    18:00 +2°C° 0 mm 5 m/S 743 mmHg 68%
    19:00 +1°C° 0 mm 4 m/S 743 mmHg 72%
    20:00 +1°C° 0 mm 3 m/S 743 mmHg 77%
    21:00 +1°C° 0 mm 3 m/S 743 mmHg 80%
    22:00 +2°C° 0 mm 2 m/S 743 mmHg 84%
    23:00 +2°C° 0 mm 2 m/S 743 mmHg 88%

    Morgen, 22 Februar, Freitag

    Zeit Temperatur Niederschläge Wind Luftdruck Luftfeuchtigkeit
    00:00 +3°C° 0.2 mm 1 m/S 743 mmHg 90%
    01:00 +3°C° 0.2 mm 1 m/S 743 mmHg 91%
    02:00 +2°C° 0.2 mm 0 m/S 743 mmHg 93%
    03:00 +2°C° 0.9 mm 1 m/S 742 mmHg 93%
    04:00 +2°C° 0.9 mm 1 m/S 742 mmHg 94%
    05:00 +1°C° 0.9 mm 2 m/S 741 mmHg 94%
    06:00 -1°C° 1 mm 3 m/S 741 mmHg 95%
    07:00 -3°C° 1 mm 4 m/S 741 mmHg 95%
    08:00 -4°C° 1 mm 5 m/S 741 mmHg 95%
    09:00 -5°C° 0.8 mm 5 m/S 741 mmHg 93%
    10:00 -5°C° 0.8 mm 6 m/S 741 mmHg 92%
    11:00 -7°C° 0.8 mm 7 m/S 742 mmHg 90%
    12:00 -7°C° 0.5 mm 7 m/S 742 mmHg 89%
    13:00 -7°C° 0.5 mm 7 m/S 743 mmHg 87%
    14:00 -8°C° 0.5 mm 7 m/S 744 mmHg 85%
    15:00 -8°C° 0.1 mm 6 m/S 744 mmHg 80%
    16:00 -8°C° 0.1 mm 6 m/S 745 mmHg 75%
    17:00 -9°C° 0.1 mm 6 m/S 746 mmHg 71%
    18:00 -10°C° 0 mm 6 m/S 746 mmHg 72%
    19:00 -10°C° 0 mm 6 m/S 747 mmHg 72%
    20:00 -11°C° 0 mm 5 m/S 748 mmHg 73%
    21:00 -12°C° 0 mm 5 m/S 748 mmHg 75%
    22:00 -12°C° 0 mm 5 m/S 748 mmHg 76%
    23:00 -12°C° 0 mm 5 m/S 749 mmHg 77%

    übermorgen, 23 Februar, Samstag

    Zeit Temperatur Niederschläge Wind Luftdruck Luftfeuchtigkeit
    00:00 -12°C° 0 mm 5 m/S 749 mmHg 76%
    01:00 -12°C° 0 mm 5 m/S 749 mmHg 76%
    02:00 -12°C° 0 mm 5 m/S 749 mmHg 75%
    03:00 -12°C° 0 mm 5 m/S 749 mmHg 75%
    04:00 -12°C° 0 mm 5 m/S 750 mmHg 76%
    05:00 -12°C° 0 mm 5 m/S 750 mmHg 76%
    06:00 -12°C° 0 mm 6 m/S 750 mmHg 76%
    07:00 -12°C° 0 mm 6 m/S 751 mmHg 76%
    08:00 -12°C° 0 mm 6 m/S 751 mmHg 75%
    09:00 -12°C° 0 mm 6 m/S 752 mmHg 74%
    10:00 -12°C° 0 mm 7 m/S 752 mmHg 73%
    11:00 -12°C° 0 mm 7 m/S 752 mmHg 72%
    12:00 -11°C° 0 mm 7 m/S 752 mmHg 71%
    13:00 -11°C° 0 mm 7 m/S 753 mmHg 71%
    14:00 -11°C° 0 mm 7 m/S 753 mmHg 71%
    15:00 -10°C° 0 mm 6 m/S 753 mmHg 72%
    16:00 -10°C° 0 mm 6 m/S 753 mmHg 72%
    17:00 -10°C° 0 mm 6 m/S 753 mmHg 73%
    18:00 -11°C° 0 mm 5 m/S 753 mmHg 75%
    19:00 -10°C° 0 mm 4 m/S 753 mmHg 77%
    20:00 -11°C° 0 mm 4 m/S 754 mmHg 80%
    21:00 -11°C° 0 mm 4 m/S 754 mmHg 81%
    22:00 -10°C° 0 mm 3 m/S 754 mmHg 82%
    23:00 -10°C° 0 mm 3 m/S 754 mmHg 83%

    24 Februar, Sonntag

    Zeit Temperatur Niederschläge Wind Luftdruck Luftfeuchtigkeit
    00:00 -12°C° 0 mm 3 m/S 754 mmHg 83%
    01:00 -12°C° 0 mm 3 m/S 754 mmHg 83%
    02:00 -12°C° 0 mm 3 m/S 754 mmHg 84%
    03:00 -12°C° 0 mm 3 m/S 753 mmHg 84%
    04:00 -12°C° 0 mm 3 m/S 753 mmHg 85%
    05:00 -12°C° 0 mm 3 m/S 753 mmHg 86%
    06:00 -12°C° 0 mm 3 m/S 753 mmHg 85%
    07:00 -12°C° 0 mm 4 m/S 753 mmHg 84%
    08:00 -12°C° 0 mm 4 m/S 753 mmHg 83%
    09:00 -11°C° 0 mm 4 m/S 753 mmHg 80%
    10:00 -10°C° 0 mm 4 m/S 753 mmHg 77%
    11:00 -9°C° 0 mm 4 m/S 753 mmHg 74%
    12:00 -9°C° 0 mm 4 m/S 753 mmHg 73%
    13:00 -8°C° 0 mm 4 m/S 752 mmHg 71%
    14:00 -7°C° 0 mm 4 m/S 752 mmHg 69%
    15:00 -7°C° 0 mm 4 m/S 752 mmHg 71%
    16:00 -6°C° 0 mm 3 m/S 751 mmHg 73%
    17:00 -6°C° 0 mm 3 m/S 751 mmHg 74%
    18:00 -6°C° 0 mm 3 m/S 751 mmHg 77%
    19:00 -6°C° 0 mm 3 m/S 751 mmHg 81%
    20:00 -7°C° 0 mm 3 m/S 751 mmHg 84%
    21:00 -7°C° 0.1 mm 3 m/S 751 mmHg 87%
    22:00 -6°C° 0.1 mm 2 m/S 750 mmHg 89%
    23:00 -6°C° 0.1 mm 2 m/S 750 mmHg 92%

    25 Februar, Montag

    Zeit Temperatur Niederschläge Wind Luftdruck Luftfeuchtigkeit
    00:00 -6°C° 0.2 mm 2 m/S 750 mmHg 93%
    01:00 -5°C° 0.2 mm 2 m/S 749 mmHg 93%
    02:00 -5°C° 0.2 mm 2 m/S 749 mmHg 94%
    03:00 -5°C° 0.1 mm 2 m/S 748 mmHg 94%
    04:00 -5°C° 0.1 mm 2 m/S 747 mmHg 94%
    05:00 -5°C° 0.1 mm 2 m/S 747 mmHg 94%
    06:00 -5°C° 0.1 mm 2 m/S 747 mmHg 93%
    07:00 -6°C° 0.1 mm 3 m/S 746 mmHg 92%
    08:00 -5°C° 0.1 mm 3 m/S 746 mmHg 91%
    09:00 -5°C° 0 mm 3 m/S 746 mmHg 90%
    10:00 -3°C° 0 mm 2 m/S 745 mmHg 88%
    11:00 -2°C° 0 mm 2 m/S 745 mmHg 87%
    12:00 -2°C° 0 mm 2 m/S 745 mmHg 87%
    13:00 -2°C° 0 mm 3 m/S 744 mmHg 87%
    14:00 -1°C° 0 mm 3 m/S 744 mmHg 87%
    15:00 -1°C° 0.1 mm 3 m/S 743 mmHg 89%
    16:00 -1°C° 0.1 mm 3 m/S 743 mmHg 90%
    17:00 -2°C° 0.1 mm 3 m/S 743 mmHg 92%
    18:00 -2°C° 0.2 mm 4 m/S 743 mmHg 91%
    19:00 -2°C° 0.2 mm 5 m/S 743 mmHg 91%
    20:00 -3°C° 0.2 mm 6 m/S 743 mmHg 90%
    21:00 -3°C° 0.1 mm 6 m/S 743 mmHg 87%
    22:00 -3°C° 0.1 mm 7 m/S 743 mmHg 84%
    23:00 -4°C° 0.1 mm 8 m/S 743 mmHg 81%

    26 Februar, Dienstag

    Zeit Temperatur Niederschläge Wind Luftdruck Luftfeuchtigkeit
    00:00 -4°C° 0 mm 7 m/S 743 mmHg 82%
    01:00 -4°C° 0 mm 7 m/S 743 mmHg 83%
    02:00 -6°C° 0 mm 7 m/S 743 mmHg 85%
    03:00 -6°C° 0 mm 7 m/S 743 mmHg 85%
    04:00 -5°C° 0 mm 6 m/S 743 mmHg 86%
    05:00 -4°C° 0 mm 6 m/S 743 mmHg 86%
    06:00 -4°C° 0 mm 6 m/S 743 mmHg 88%
    07:00 -4°C° 0 mm 5 m/S 743 mmHg 89%
    08:00 -4°C° 0 mm 5 m/S 742 mmHg 90%
    09:00 -3°C° 0.1 mm 6 m/S 742 mmHg 89%
    10:00 -3°C° 0.1 mm 6 m/S 742 mmHg 88%
    11:00 -2°C° 0.1 mm 6 m/S 741 mmHg 87%
    12:00 -2°C° 0 mm 6 m/S 741 mmHg 87%
    13:00 -2°C° 0 mm 6 m/S 740 mmHg 87%
    14:00 -2°C° 0 mm 6 m/S 740 mmHg 87%
    15:00 -1°C° 0 mm 5 m/S 740 mmHg 87%
    16:00 -1°C° 0 mm 5 m/S 740 mmHg 86%
    17:00 -2°C° 0 mm 5 m/S 739 mmHg 86%
    18:00 -2°C° 0 mm 5 m/S 739 mmHg 87%
    19:00 -2°C° 0 mm 5 m/S 738 mmHg 87%
    20:00 -2°C° 0 mm 5 m/S 738 mmHg 88%
    21:00 -2°C° 0 mm 5 m/S 737 mmHg 88%
    22:00 -2°C° 0 mm 5 m/S 736 mmHg 89%
    23:00 -2°C° 0 mm 5 m/S 735 mmHg 89%
    Mehr zeigen